Flag Weather past 2 weeks in Kiritimati, Christmas Island, Kiribati

Now
81 °F

Passing clouds.


Feels Like: 85 °F
Forecast: 80 / 85 °F
Wind: 12 mph from Southeast

Location: Christmas / Cassidy

Current Time: Nov 27, 2014 at 12:43:07 AM

Latest Report: Nov 27, 2014 at 12:00 AM


Visibility: N/A

Pressure: 29.74 "Hg

Humidity: 79%

Dew point: 73 °F

Location of KiritimatiLocation

Historic Weather in Kiritimati — Graph

°F

Kiritimati temperature yesterday

Maximum temperature yesterday: 88 °F (at 12:00 PM)
Minimum temperature yesterday: 79 °F (at 5:00 AM)
Average temperature yesterday: 84 °F

Past Weeks' High & Low Weather Summary

 TemperatureHumidityPressure
High88 °F (Nov 17, 2:00 PM)94% (Nov 12, 6:00 AM)32.52 "Hg (Nov 12, 6:00 AM)
Low75 °F (Nov 16, 1:00 AM)62% (Nov 17, 2:00 PM)29.68 "Hg (Nov 25, 2:00 PM)
Average82 °F77%29.81 "Hg
* Reported Nov 11 11:00 PM — Nov 26 10:00 PM, Kiritimati, Weather by CustomWeather, © 2014

Note: Actual official high and low records may vary slightly from our data, if they occured in-between our weather recording intervals... More about our weather records

Advertising

Kiritimati weather history for previous 24 hours

 ConditionsComfort  
Time TempWeatherWind HumidityBarometerVisibility
10:00 PM
Nov 26
81 °FPassing clouds.12 mph79%29.74 "HgN/A
8:00 PM82 °FPassing clouds.14 mph79%29.74 "HgN/A
6:00 PM84 °FPassing clouds.9 mph79%29.71 "HgN/A
5:00 PM86 °FScattered clouds.14 mph75%29.68 "HgN/A
4:00 PM86 °FPassing clouds.16 mph75%29.68 "HgN/A
3:00 PM86 °FPassing clouds.10 mph75%29.68 "HgN/A
2:00 PM88 °FPassing clouds.16 mph75%29.71 "HgN/A
1:00 PM88 °FPassing clouds.10 mph75%29.71 "HgN/A
12:00 PM88 °FPassing clouds.12 mph75%29.74 "HgN/A
11:00 AM86 °FPassing clouds.14 mph70%29.77 "HgN/A
9:00 AM86 °FPassing clouds.16 mph70%29.80 "HgN/A
8:00 AM84 °FPassing clouds.9 mph70%29.80 "HgN/A
7:00 AM82 °FScattered clouds.7 mph74%29.80 "HgN/A
6:00 AM81 °FScattered showers. Scattered clouds.12 mph84%29.80 "HgN/A
5:00 AM79 °FPassing clouds.5 mph84%29.77 "HgN/A
4:00 AM81 °FPassing clouds.7 mph79%29.77 "HgN/A
3:00 AM81 °FPassing clouds.7 mph79%29.74 "HgN/A
2:00 AM81 °FPassing clouds.9 mph84%29.74 "HgN/A
12:00 AM81 °FPassing clouds.14 mph84%29.77 "HgN/A
Weather by CustomWeather, © 2014

See weather overviewHow to use our weather pages